P/2004 V9 ( SOHO )

Japanese version
Home page
Updated on August 22, 2010

---------------------------------------------------------------------

* Profile

* Orbital Elements

Epoch 2004 Nov. 11.0 TT = JDT 2453320.5
T 2004 Nov. 8.55843 TT                                  MPC
q   0.0491728            (2000.0)            P               Q
n   0.18054260     Peri.   22.01100     -0.19636038     -0.87464580
a   3.1003895      Node    81.61896     +0.81954528     -0.39455656
e   0.9841398      Incl.   26.61524     +0.53831974     +0.28163780
P   5.46

* Magnitudes Graph

        m1 = 24.0 + 5 log d + 15.0 log r

---------------------------------------------------------------------

The orbital elements are published on M.P.E.C. 2010-J28.
The magnitudes graphs are made with Comet for Windows.

---------------------------------------------------------------------

Copyright(C) Seiichi Yoshida (comet@aerith.net). All rights reserved.